Regional Weather Roundup
Issued by NWS

Home | Current Version | Previous Version | Graphics & Text | Print | Product List | Glossary On
Versions: 1 2 3 4 5 6 7 8 9 10 11 12 13 14 15 16 17 18 19 20 21 22 23 24 25 26 27 28 29 30 31 32 33 34 35 36 37 38 39 40 41 42 43 44 45 46 47 48 49 50
000
ASUS43 KOAX 190910
RWRNE

WEATHER ROUNDUP FOR NEBRASKA
NATIONAL WEATHER SERVICE OMAHA NE
300 AM CST FRI JAN 19 2018

NOTES: SATELLITE DATA IS BEING USED TO AUGMENT CLOUD COVER ABOVE
       12000 FEET.
       "FAIR" INDICATES FEW OR NO CLOUDS BELOW 12,000 FEET WITH NO
       SIGNIFICANT WEATHER AND/OR OBSTRUCTIONS TO VISIBILITY.


NEZ001>004-019>022-054>056-191000-
NEBRASKA PANHANDLE

CITY           SKY/WX    TMP DP  RH WIND       PRES   REMARKS
SCOTTSBLUFF    CLOUDY    34  28  79 CALM      29.79F
ALLIANCE       CLOUDY    39  30  70 W13       29.75F WCI  31
CHADRON        CLOUDY    34  29  82 CALM      29.70F
GORDON         FAIR      41  30  66 SW12      29.70F
KIMBALL        CLOUDY    40  19  43 W7        29.83S WCI  35
SIDNEY         MOCLDY    31  20  63 SW10      29.80F WCI  22
$$

NEZ057>060-069>072-079>082-191000-
SOUTHWEST NEBRASKA

CITY           SKY/WX    TMP DP  RH WIND       PRES   REMARKS
NORTH PLATTE   MOCLDY    25  21  85 NW6       29.79F WCI  18
IMPERIAL       PTCLDY    30  23  75 CALM      29.81F
LEXINGTON      CLOUDY    30  25  80 CALM      29.78S
MCCOOK         MOCLDY    28  21  75 W7        29.81F WCI  21
OGALLALA       PTCLDY    27  24  87 W7        29.79F WCI  19
$$

NEZ005>010-023>029-035>040-094-191000-
NORTH CENTRAL NEBRASKA

CITY           SKY/WX    TMP DP  RH WIND       PRES   REMARKS
VALENTINE      PTCLDY    40  30  67 W6        29.67F
AINSWORTH      CLOUDY    42  32  70 SW12      29.68S
BROKEN BOW     CLOUDY    38  25  59 SW5       29.75F WCI  34
O`NEILL        CLOUDY    38  31  74 S9        29.68F WCI  32
ORD            CLOUDY    28  25  88 CALM      29.74F
THEDFORD       MOCLDY    39  31  72 CALM      29.73S
$$

NEZ041-046>049-061>064-073>077-083>087-191000-
SOUTH CENTRAL NEBRASKA

CITY           SKY/WX    TMP DP  RH WIND       PRES   REMARKS
GRAND ISLAND   CLOUDY    36  25  64 SW12      29.78F WCI  28
AURORA         CLOUDY    34  24  65 SW12      29.78F WCI  26
HASTINGS       CLOUDY    36  21  54 SW6       29.80F WCI  31
HEBRON         CLOUDY    36  23  60 SW12      29.85S WCI  27
HOLDREGE       CLOUDY    34  25  69 SW7       29.79F WCI  28
KEARNEY        CLOUDY    34  25  69 SW13      29.79  WCI  25
YORK           CLOUDY    32  27  80 S10       29.80F WCI  24
$$

NEZ011>018-030>034-042>045-191000-
NORTHEAST NEBRASKA

CITY           SKY/WX    TMP DP  RH WIND       PRES   REMARKS
NORFOLK        CLOUDY    28  25  88 SE5       29.74F WCI  23
ALBION         CLOUDY    34  28  79 CALM      29.75S
BLAIR          CLOUDY    31  24  75 S7        29.81S WCI  24
COLUMBUS       CLOUDY    26  23  88 CALM      29.79F
FREMONT        CLOUDY    32  25  73 CALM      29.81S
TEKAMAH        CLOUDY    24  20  84 SE6       29.80F WCI  17
WAYNE          CLOUDY    32  31  96 S7        29.74S WCI  25
$$

NEZ050>053-065>068-078-088>093-191000-
SOUTHEAST NEBRASKA

CITY           SKY/WX    TMP DP  RH WIND       PRES   REMARKS
LINCOLN        CLOUDY    34  23  64 S9        29.83F WCI  27
OMAHA EPPLEY   CLOUDY    28  23  81 SE12      29.83F WCI  18
BEATRICE       CLOUDY    34  26  72 S8        29.88R WCI  27
FALLS CITY     CLOUDY    34  23  64 S10       29.89F WCI  26
NEBRASKA CITY  CLOUDY    36  27  70 SW18      29.85S WCI  26
PLATTSMOUTH    PTCLDY    32  25  76 S12       29.83F WCI  23
$$

NEZ044-045-051>053-067-191000-
OMAHA AREA

CITY           SKY/WX    TMP DP  RH WIND       PRES   REMARKS
OMAHA EPPLEY   CLOUDY    28  23  81 SE12      29.83F WCI  18
BLAIR          CLOUDY    31  24  75 S7        29.81S WCI  24
FREMONT        CLOUDY    32  25  73 CALM      29.81S
MILLARD        CLOUDY    28  23  81 SE3       29.83S
OFFUTT AFB     CLOUDY    23  19  85 E5        29.83F WCI  17
PLATTSMOUTH    PTCLDY    32  25  76 S12       29.83F WCI  23
WAHOO          FAIR      29  23  78 S5        29.81F WCI  24
$$




USA.gov is the U.S. government's official web portal to all federal, state and local government web resources and services.